Regional Weather Roundup
Issued by NWS Newport/Morehead, NC

Home | Current Version | Previous Version | Text Only | Print | Product List | Glossary On
Versions: 1 2 3 4 5 6 7 8 9 10 11 12 13 14 15 16 17 18 19 20 21 22 23 24 25 26 27 28 29 30 31 32 33 34 35 36 37 38 39 40 41 42 43 44 45 46 47 48 49 50
000
ASUS42 KMHX 230525
RWRMHX
WEATHER ROUNDUP FOR EASTERN NORTH CAROLINA
NATIONAL WEATHER SERVICE NEWPORT/MOREHEAD CITY NC
100 AM EDT THU MAR 23 2017

NOTE: "FAIR" INDICATES FEW OR NO CLOUDS BELOW 12,000 FEET
WITH NO SIGNIFICANT WEATHER AND/OR OBSTRUCTIONS TO VISIBILITY

NCZ015>017-031-032-045>047-102-103-230600-
NORTH COAST

CITY           SKY/WX    TMP DP  RH WIND       PRES   REMARKS
EDENTON        CLEAR     37  28  71 CALM      30.47R
ELIZABETH CITY PTCLDY    38  24  57 NE7       30.46R
KITTY HAWK     NOT AVBL
MANTEO         CLEAR     40  28  61 NE10      30.46R

$$

NCZ045>047-081-094-103-104-230600-
CENTRAL COAST

CITY           SKY/WX    TMP DP  RH WIND       PRES   REMARKS
FRISCO         CLEAR     44  25  47 NE9G18    30.44R

$$

NCZ095-097-098-100-101-230600-
SOUTHERN COAST

CITY           SKY/WX    TMP DP  RH WIND       PRES   REMARKS
BEAUFORT       CLEAR     41  28  60 NE3       30.44R
CEDAR ISLAND   NOT AVBL
JACKSONVILLE   CLEAR     41  32  70 NE6       30.44R
PINEY ISLAND   CLEAR    N/A N/A N/A NE13G21   30.44R
WILMINGTON     CLEAR     41  30  65 NE12      30.41S


$$

NCZ011>013-027>030-043-044-078>080-089-090>093-098-230600-
COASTAL PLAIN

CITY           SKY/WX    TMP DP  RH WIND       PRES   REMARKS
AHOSKIE        NOT AVBL
CLINTON        CLEAR     41  29  63 CALM      30.46R
ELIZABETHTOWN  CLEAR     42  31  63 CALM      30.44R
GOLDSBORO      CLEAR     38  24  57 NE5       30.43R
GREENVILLE     PTCLDY    34  28  80 CALM      30.46R
HAVELOCK       CLEAR     44  28  53 NE13      30.44S
KENANSVILLE    CLEAR     39  28  65 CALM      30.45R
KINSTON        CLEAR     39  29  67 CALM      30.46R
NEW BERN       CLEAR     41  29  62 E8        30.45S
RICHLANDS      CLEAR     39  30  70 NE10      30.44R
ROCKY MOUNT    PTCLDY    35  26  69 NE5       30.46R
WASHINGTON     CLEAR     35  30  79 CALM      30.47R
WHITEVILLE     CLEAR     46  31  56 NE8       30.42R

$$

AMZ130-135-150-152-154-156-158-170-250-252-270-ANZ085-086-088-633-658-670-230600-
MARINE OBSERVATIONS

STATION/POSITION TIME  TEMP    WIND        PRES    WAVE   SWELL
                       AIR SEA DIR/SP/G            HT/PER HT/PER
                 (UTC) (F)     (DEG/KT/KT) (MB)    (FT/S) (FT/S)
CHESAPEAKE LIGHT NOT AVBL
64 E VA BEACH    0450   42 49   10/ 21/ 27 1030.0   10/ 8   7/ 8
DUCK             0500   42 48   40/ 15/ 18 1030.7
2 E DUCK         0500      47                N/A     6/ 8   2/11
OREGON INLET     0500   42 51   30/ 11/ 14 1031.1
13E OREGON INLT  NOT AVBL
HATTERAS CG      0500   44 55   40/ 11/ 15 1030.3
DIAMOND BUOY     0450   47 75   30/ 21/ 29 1029.8   10/11   5/11
CAPE LOOKOUT     0500   47      30/ 17/ 21 1029.9
BEAUFORT LAB     0500   42 53   50/  5/  6 1029.8
30 SE NEW RVR IN 0508   51      50/ 23/ 31 1029.2
30 SE NEW RVR IN 0443      64                N/A     8/ 6   2/11
27 SE WRIGHTSVLE 0508   52 63   80/ 21/ 33 1028.1
5 SE WRIGHTSVLE  0508   50 57   70/ 17/ 37 1029.7
225 S CAPE HAT   0450   61 73   20/ 29/ 35 1023.1    9/ 9   7/ 9
41 SE CHARLESTON 0450   62 66   50/ 25/ 29 1024.7    7/ 6   2/10

$$



USA.gov is the U.S. government's official web portal to all federal, state and local government web resources and services.